This is the latest recevied weather packets stored in our database for station/object VK4TW-13. If no packets are shown the sender has not sent any weather packets the latest 10 day(s).
| Time | Temp. | Humidity | Pressure | Rain* | Wind** | Luminosity | Snow |
|---|---|---|---|---|---|---|---|
| 1778129079 | 28.89° C | 100% | 1012.8 hPa | 0 mm | - | - | - |
| 1778128478 | 28.89° C | 100% | 1012.7 hPa | 0 mm | - | - | - |
| 1778127876 | 29.44° C | 100% | 1012.8 hPa | 0 mm | - | - | - |
| 1778127276 | 29.44° C | 100% | 1012.9 hPa | 0 mm | - | - | - |
| 1778126676 | 29.44° C | 100% | 1013.1 hPa | 0 mm | - | - | - |
| 1778126075 | 28.89° C | 100% | 1013.1 hPa | 0 mm | - | - | - |
| 1778125477 | 28.89° C | 100% | 1013.2 hPa | 0 mm | - | - | - |
| 1778124873 | 28.89° C | 100% | 1013.2 hPa | 0 mm | - | - | - |
| 1778124271 | 28.89° C | 100% | 1013.4 hPa | 0 mm | - | - | - |
| 1778123674 | 29.44° C | 100% | 1013.4 hPa | 0 mm | - | - | - |
| 1778123069 | 29.44° C | 100% | 1013.4 hPa | 0 mm | - | - | - |
| 1778122470 | 28.89° C | 100% | 1013.7 hPa | 0 mm | - | - | - |
| 1778121869 | 28.89° C | 100% | 1013.9 hPa | 0 mm | - | - | - |
| 1778121269 | 28.89° C | 100% | 1014 hPa | 0 mm | - | - | - |
| 1778120668 | 28.89° C | 100% | 1014.2 hPa | 0 mm | - | - | - |
| 1778120067 | 28.33° C | 100% | 1014.3 hPa | 0 mm | - | - | - |
| 1778119464 | 28.33° C | 100% | 1014.4 hPa | 0 mm | - | - | - |
| 1778118865 | 28.33° C | 100% | 1014.5 hPa | 0 mm | - | - | - |
| 1778118264 | 28.33° C | 100% | 1014.8 hPa | 0 mm | - | - | - |
| 1778117662 | 28.33° C | 100% | 1014.8 hPa | 0 mm | - | - | - |
| 1778117062 | 28.89° C | 100% | 1015 hPa | 0 mm | - | - | - |
| 1778116461 | 28.33° C | 100% | 1015.2 hPa | 0 mm | - | - | - |
| 1778115859 | 28.33° C | 100% | 1015.4 hPa | 0 mm | - | - | - |
| 1778115258 | 27.78° C | 100% | 1015.5 hPa | 0 mm | - | - | - |
| 1778114658 | 27.22° C | 100% | 1015.7 hPa | 0 mm | - | - | - |
* Rain since midnight (hover to see other rain measurements)
** Current wind speed in m/s (hover to see current wind gust speed)